User: anonymous   Login
Location: Unspecified
(0.0000°N, 0.0000°E)
Time: 22:43:00
(UTC+00:00)
Language:

STARLINK-30588 - Orbit

View from above orbital plane
View from above orbital plane
View from above satellite
View from above satellite

Ground track
Ground track

The orbit is defined by the following mean orbital elements,

1 58062U          26145.47501951 +.00000000 +00000-0 +74485-4 0 00006
2 58062  43.0021 313.3709 0001320 266.7435  93.3266 15.27578329    06
Epoch (UTC): 25 May 2026 11:24:01
Eccentricity: 0.0001320
inclination: 43.0021°
perigee height: 482 km
apogee height: 484 km
right ascension of ascending node: 313.3709°
argument of perigee: 266.7435°
revolutions per day: 15.27578329
mean anomaly at epoch: 93.3266°

The dashed part of the orbit path shows where the satellite is in the earth's shadow,  

DLR